Simultaneous Nadir Overpasses (SNOs) Predictions

Prediction of SNOs between TERRA and METOP-C Satellite Orbit:

Table of predicted SNOs for the next 14.0 days since TLE Epoch: 2/20/2021
Index Date (TERRA) Time (TERRA) Lat,Lon (TERRA) SZA (TERRA ) Date (METOP-C) Time (METOP-C) Lat,Lon (METOP-C) SZA (METOP-C ) Distance(km) Time Diff (sec)
1 02/22/2021 18:18:12 81.27, -48.39 93.43 02/22/2021 18:17:47 81.28, -48.25 93.44 2.51 25
2 02/22/2021 19:07:38 -81.29, 119.56 86.54 02/22/2021 19:08:28 -81.29, 119.38 86.54 3.05 50
3 02/25/2021 13:52:24 81.29, 18.39 92.46 02/25/2021 13:52:08 81.29, 18.36 92.44 1.00 16
4 02/25/2021 14:41:51 -81.29,-174.01 87.57 02/25/2021 14:42:49 -81.29,-174.00 87.54 0.16 58
5 02/28/2021 09:26:38 81.29, 84.76 91.41 02/28/2021 09:26:30 81.29, 84.96 91.42 3.32 8
6 02/28/2021 10:16:05 -81.29,-107.61 88.61 02/28/2021 10:17:12 -81.29,-107.79 88.60 2.98 67
7 03/03/2021 04:11:26 -81.28, -16.54 89.65 03/03/2021 04:10:14 -81.28, -16.48 89.68 1.12 72
8 03/03/2021 05:00:52 81.28, 151.11 90.34 03/03/2021 05:00:53 81.29, 151.16 90.35 0.95 1
9 03/03/2021 05:49:52 -81.72, -30.52 88.21 03/03/2021 05:51:06 -81.31, -30.19 88.38 45.59 74
10 03/05/2021 23:45:39 -81.28, 49.81 90.73 03/05/2021 23:44:36 -81.28, 49.71 90.77 1.63 63



Historial Predications of SNOs between TERRA and METOP-C
